Year,Month,Day,Hour,Minute,Value (Times are PST for temperature in C)
2009,10,31,09,17,11.00
2009,10,31,09,18,11.00
2009,10,31,09,19,11.00
2009,10,31,09,20,11.00
2009,10,31,09,21,11.10
2009,10,31,09,22,11.10
2009,10,31,09,23,11.10
2009,10,31,09,24,11.10
2009,10,31,09,25,11.10
2009,10,31,09,26,11.10
2009,10,31,09,27,11.10
2009,10,31,09,28,11.10
2009,10,31,09,29,11.10
2009,10,31,09,30,11.10
2009,10,31,09,31,11.10
2009,10,31,09,32,11.10
2009,10,31,09,33,11.00
2009,10,31,09,34,11.00
2009,10,31,09,35,10.90
2009,10,31,09,36,10.90
2009,10,31,09,37,10.90
2009,10,31,09,38,10.90
2009,10,31,09,39,10.90
2009,10,31,09,40,10.90
2009,10,31,09,41,10.80
2009,10,31,09,42,10.80
2009,10,31,09,43,10.80
2009,10,31,09,44,10.80
2009,10,31,09,45,10.80
2009,10,31,09,46,10.80
2009,10,31,09,47,10.80
2009,10,31,09,48,10.80
2009,10,31,09,49,10.90
2009,10,31,09,50,10.90
2009,10,31,09,51,10.90
2009,10,31,09,52,11.00
2009,10,31,09,53,11.00
2009,10,31,09,54,11.10
2009,10,31,09,55,11.10
2009,10,31,09,56,11.10
2009,10,31,09,57,11.20
2009,10,31,09,58,11.20
2009,10,31,09,59,11.30
2009,10,31,10,00,11.30
2009,10,31,10,01,11.30
2009,10,31,10,02,11.30
2009,10,31,10,03,11.40
2009,10,31,10,04,11.30
2009,10,31,10,05,11.30
2009,10,31,10,06,11.30
2009,10,31,10,07,11.30
2009,10,31,10,08,11.30
2009,10,31,10,09,11.30
2009,10,31,10,10,11.30
2009,10,31,10,11,11.40
2009,10,31,10,12,11.40
2009,10,31,10,13,11.40
2009,10,31,10,14,11.50
2009,10,31,10,15,11.50
2009,10,31,10,16,11.50
2009,10,31,10,17,11.40
2009,10,31,10,18,11.40
2009,10,31,10,19,11.40
2009,10,31,10,20,11.40
2009,10,31,10,21,11.30
2009,10,31,10,22,11.30
2009,10,31,10,23,11.30
2009,10,31,10,24,11.30
2009,10,31,10,25,11.30
2009,10,31,10,26,11.30
2009,10,31,10,27,11.40
2009,10,31,10,28,11.40
2009,10,31,10,29,11.50
2009,10,31,10,30,11.50
2009,10,31,10,31,11.60
2009,10,31,10,32,11.60
2009,10,31,10,33,11.60
2009,10,31,10,34,11.70
2009,10,31,10,35,11.70
2009,10,31,10,36,11.70
2009,10,31,10,37,11.70
2009,10,31,10,38,11.80
2009,10,31,10,39,11.80
2009,10,31,10,40,11.80
2009,10,31,10,41,11.80
2009,10,31,10,42,11.80
2009,10,31,10,43,11.80
2009,10,31,10,44,11.90
2009,10,31,10,45,11.90
2009,10,31,10,46,11.90
2009,10,31,10,47,11.90
2009,10,31,10,48,11.90
2009,10,31,10,49,11.90
2009,10,31,10,50,12.00
2009,10,31,10,51,11.90
2009,10,31,10,52,11.90
2009,10,31,10,53,12.00
2009,10,31,10,54,12.00
2009,10,31,10,55,12.00
2009,10,31,10,56,12.10
2009,10,31,10,57,12.10
2009,10,31,10,58,12.10
2009,10,31,10,59,12.00
2009,10,31,11,00,12.00
2009,10,31,11,01,12.00
2009,10,31,11,02,11.90
2009,10,31,11,03,11.90
2009,10,31,11,04,11.90
2009,10,31,11,05,11.90
2009,10,31,11,06,11.90
2009,10,31,11,07,11.90
2009,10,31,11,08,11.90
2009,10,31,11,09,11.90
2009,10,31,11,10,11.90
2009,10,31,11,11,11.90
2009,10,31,11,12,11.90
2009,10,31,11,13,11.90
2009,10,31,11,14,11.90
2009,10,31,11,15,11.90
2009,10,31,11,16,11.90
2009,10,31,11,17,12.00
2009,10,31,11,18,12.00
2009,10,31,11,19,12.00
2009,10,31,11,20,12.00
2009,10,31,11,21,12.00
2009,10,31,11,22,12.00
2009,10,31,11,23,12.00
2009,10,31,11,24,12.10
2009,10,31,11,25,12.10
2009,10,31,11,26,12.10
2009,10,31,11,27,12.10
2009,10,31,11,28,12.20
2009,10,31,11,29,12.20
2009,10,31,11,30,12.20
2009,10,31,11,31,12.20
2009,10,31,11,32,12.20
2009,10,31,11,33,12.20
2009,10,31,11,34,12.20
2009,10,31,11,35,12.20
2009,10,31,11,36,12.20
2009,10,31,11,37,12.20
2009,10,31,11,38,12.20
2009,10,31,11,39,12.20
2009,10,31,11,40,12.20
2009,10,31,11,41,12.30
2009,10,31,11,42,12.30
2009,10,31,11,43,12.30
2009,10,31,11,44,12.40
2009,10,31,11,45,12.40
2009,10,31,11,46,12.40
2009,10,31,11,47,12.40
2009,10,31,11,48,12.40
2009,10,31,11,49,12.40
2009,10,31,11,50,12.40
2009,10,31,11,51,12.50
2009,10,31,11,52,12.50
2009,10,31,11,53,12.50
2009,10,31,11,54,12.50
2009,10,31,11,55,12.50
2009,10,31,11,56,12.50
2009,10,31,11,57,12.60
2009,10,31,11,58,12.60
2009,10,31,11,59,12.50
2009,10,31,12,00,12.60
2009,10,31,12,01,12.60
2009,10,31,12,02,12.50
2009,10,31,12,03,12.50
2009,10,31,12,04,12.50
2009,10,31,12,05,12.50
2009,10,31,12,06,12.50
2009,10,31,12,07,12.50
2009,10,31,12,08,12.50
2009,10,31,12,09,12.50
2009,10,31,12,10,12.50
2009,10,31,12,11,12.40
2009,10,31,12,12,12.50
2009,10,31,12,13,12.50
2009,10,31,12,14,12.50
2009,10,31,12,15,12.50
2009,10,31,12,16,12.50
2009,10,31,12,17,12.60
2009,10,31,12,18,12.60
2009,10,31,12,19,12.60
2009,10,31,12,20,12.60
2009,10,31,12,21,12.60
2009,10,31,12,22,12.60
2009,10,31,12,23,12.60
2009,10,31,12,24,12.60
2009,10,31,12,25,12.60
2009,10,31,12,26,12.60
2009,10,31,12,27,12.60
2009,10,31,12,28,12.60
2009,10,31,12,29,12.60
2009,10,31,12,30,12.60
2009,10,31,12,31,12.60
2009,10,31,12,32,12.50
2009,10,31,12,33,12.50
2009,10,31,12,34,12.60
2009,10,31,12,35,12.60
2009,10,31,12,36,12.60
2009,10,31,12,37,12.60
2009,10,31,12,38,12.60
2009,10,31,12,39,12.60
2009,10,31,12,40,12.60
2009,10,31,12,41,12.60
2009,10,31,12,42,12.60
2009,10,31,12,43,12.70
2009,10,31,12,44,12.70
2009,10,31,12,45,12.70
2009,10,31,12,46,12.80
2009,10,31,12,47,12.80
2009,10,31,12,48,12.70
2009,10,31,12,49,12.70
2009,10,31,12,50,12.70
2009,10,31,12,51,12.70
2009,10,31,12,52,12.70
2009,10,31,12,53,12.80
2009,10,31,12,54,12.80
2009,10,31,12,55,12.80
2009,10,31,12,56,12.80
2009,10,31,12,57,12.80
2009,10,31,12,58,12.80
2009,10,31,12,59,12.80
2009,10,31,13,00,12.80
2009,10,31,13,01,12.80
2009,10,31,13,02,12.80
2009,10,31,13,03,12.90
2009,10,31,13,04,12.90
2009,10,31,13,05,12.90
2009,10,31,13,06,12.90
2009,10,31,13,07,12.90
2009,10,31,13,08,12.90
2009,10,31,13,09,12.90
2009,10,31,13,10,12.90
2009,10,31,13,11,12.80
2009,10,31,13,12,12.80
2009,10,31,13,13,12.70
2009,10,31,13,14,12.70
2009,10,31,13,15,12.70
2009,10,31,13,16,12.70
2009,10,31,13,17,12.60
2009,10,31,13,18,12.60
2009,10,31,13,19,12.50
2009,10,31,13,20,12.50
2009,10,31,13,21,12.40
2009,10,31,13,22,12.40
2009,10,31,13,23,12.40
2009,10,31,13,24,12.40
2009,10,31,13,25,12.30
2009,10,31,13,26,12.30
2009,10,31,13,27,12.30
2009,10,31,13,28,12.30
2009,10,31,13,29,12.30
2009,10,31,13,30,12.30
2009,10,31,13,31,12.30
2009,10,31,13,32,12.30
2009,10,31,13,33,12.30
2009,10,31,13,34,12.40
2009,10,31,13,35,12.40
2009,10,31,13,36,12.50
2009,10,31,13,37,12.50
2009,10,31,13,38,12.60
2009,10,31,13,39,12.70
2009,10,31,13,40,12.80
2009,10,31,13,41,12.90
2009,10,31,13,42,13.00
2009,10,31,13,43,13.00
2009,10,31,13,44,13.10
2009,10,31,13,45,13.20
2009,10,31,13,46,13.20
2009,10,31,13,47,13.20
2009,10,31,13,48,13.20
2009,10,31,13,49,13.20
2009,10,31,13,50,13.20
2009,10,31,13,51,13.20
2009,10,31,13,52,13.30
2009,10,31,13,53,13.30
2009,10,31,13,54,13.40
2009,10,31,13,55,13.40
2009,10,31,13,56,13.40
2009,10,31,13,57,13.40
2009,10,31,13,58,13.40
2009,10,31,13,59,13.40
2009,10,31,14,00,13.40
2009,10,31,14,01,13.40
2009,10,31,14,02,13.40
2009,10,31,14,03,13.40
2009,10,31,14,04,13.40
2009,10,31,14,05,13.30
2009,10,31,14,06,13.30
2009,10,31,14,07,13.30
2009,10,31,14,08,13.30
2009,10,31,14,09,13.30
2009,10,31,14,10,13.30
2009,10,31,14,11,13.30
2009,10,31,14,12,13.30
2009,10,31,14,13,13.30
2009,10,31,14,14,13.30
2009,10,31,14,15,13.40
2009,10,31,14,16,13.40
2009,10,31,14,17,13.40
2009,10,31,14,18,13.40
2009,10,31,14,19,13.40
2009,10,31,14,20,13.50
2009,10,31,14,21,13.50
2009,10,31,14,22,13.60
2009,10,31,14,23,13.70
2009,10,31,14,24,13.70
2009,10,31,14,25,13.70
2009,10,31,14,26,13.70
2009,10,31,14,27,13.60
2009,10,31,14,28,13.50
2009,10,31,14,29,13.50
2009,10,31,14,30,13.40
2009,10,31,14,31,13.30
2009,10,31,14,32,13.30
2009,10,31,14,33,13.30
2009,10,31,14,34,13.30
2009,10,31,14,35,13.30
2009,10,31,14,36,13.30
2009,10,31,14,37,13.40
2009,10,31,14,38,13.40
2009,10,31,14,39,13.40
2009,10,31,14,40,13.40
2009,10,31,14,41,13.40
2009,10,31,14,42,13.40
2009,10,31,14,43,13.40
2009,10,31,14,44,13.40
2009,10,31,14,45,13.40
2009,10,31,14,46,13.40
2009,10,31,14,47,13.30
2009,10,31,14,48,13.40
2009,10,31,14,49,13.30
2009,10,31,14,50,13.30
2009,10,31,14,51,13.20
2009,10,31,14,52,13.20
2009,10,31,14,53,13.20
2009,10,31,14,54,13.20
2009,10,31,14,55,13.20
2009,10,31,14,56,13.20
2009,10,31,14,57,13.20
2009,10,31,14,58,13.30
2009,10,31,14,59,13.30
2009,10,31,15,00,13.30
2009,10,31,15,01,13.30
2009,10,31,15,02,13.30
2009,10,31,15,03,13.30
2009,10,31,15,04,13.30
2009,10,31,15,05,13.30
2009,10,31,15,06,13.40
2009,10,31,15,07,13.40
2009,10,31,15,08,13.50
2009,10,31,15,09,13.50
2009,10,31,15,10,13.50
2009,10,31,15,11,13.50
2009,10,31,15,12,13.40
2009,10,31,15,13,13.50
2009,10,31,15,14,13.40
2009,10,31,15,15,13.40
2009,10,31,15,16,13.40
2009,10,31,15,17,13.40
2009,10,31,15,18,13.50
2009,10,31,15,19,13.50
2009,10,31,15,20,13.60
2009,10,31,15,21,13.60
2009,10,31,15,22,13.60
2009,10,31,15,23,13.60
2009,10,31,15,24,13.60
2009,10,31,15,25,13.60
2009,10,31,15,26,13.60
2009,10,31,15,27,13.50
2009,10,31,15,28,13.50
2009,10,31,15,29,13.40
2009,10,31,15,30,13.40
2009,10,31,15,31,13.40
2009,10,31,15,32,13.40
2009,10,31,15,33,13.40
2009,10,31,15,34,13.40
2009,10,31,15,35,13.40
2009,10,31,15,36,13.30
2009,10,31,15,37,13.40
2009,10,31,15,38,13.40
2009,10,31,15,39,13.40
2009,10,31,15,40,13.40
2009,10,31,15,41,13.40
2009,10,31,15,42,13.50
2009,10,31,15,43,13.50
2009,10,31,15,44,13.50
2009,10,31,15,45,13.50
2009,10,31,15,46,13.50
2009,10,31,15,47,13.40
2009,10,31,15,48,13.40
2009,10,31,15,49,13.40
2009,10,31,15,50,13.40
2009,10,31,15,51,13.50
2009,10,31,15,52,13.50
2009,10,31,15,53,13.40
2009,10,31,15,54,13.40
2009,10,31,15,55,13.30
2009,10,31,15,56,13.30
2009,10,31,15,57,13.30
2009,10,31,15,58,13.30
2009,10,31,15,59,13.30
2009,10,31,16,00,13.30
2009,10,31,16,01,13.30
2009,10,31,16,02,13.30
2009,10,31,16,03,13.30
2009,10,31,16,04,13.20
2009,10,31,16,05,13.20
2009,10,31,16,06,13.20
2009,10,31,16,07,13.20
2009,10,31,16,08,13.20
2009,10,31,16,09,13.10
2009,10,31,16,10,13.10
2009,10,31,16,11,13.00
2009,10,31,16,12,13.00
2009,10,31,16,13,13.00
2009,10,31,16,14,12.90
2009,10,31,16,15,12.90
2009,10,31,16,16,12.80
2009,10,31,16,17,12.80
2009,10,31,16,18,12.80
2009,10,31,16,19,12.80
2009,10,31,16,20,12.80
2009,10,31,16,21,12.80
2009,10,31,16,22,12.80
2009,10,31,16,23,12.80
2009,10,31,16,24,12.80
2009,10,31,16,25,12.80
2009,10,31,16,26,12.80
2009,10,31,16,27,12.80
2009,10,31,16,28,12.70
2009,10,31,16,29,12.70
2009,10,31,16,30,12.60
2009,10,31,16,31,12.60
2009,10,31,16,32,12.60
2009,10,31,16,33,12.60
2009,10,31,16,34,12.50
2009,10,31,16,35,12.50
2009,10,31,16,36,12.40
2009,10,31,16,37,12.40
2009,10,31,16,38,12.40
2009,10,31,16,39,12.40
2009,10,31,16,40,12.30
2009,10,31,16,41,12.30
2009,10,31,16,42,12.30
2009,10,31,16,43,12.30
2009,10,31,16,44,12.30
2009,10,31,16,45,12.30
2009,10,31,16,46,12.30
2009,10,31,16,47,12.30
2009,10,31,16,48,12.30
2009,10,31,16,49,12.30
2009,10,31,16,50,12.30
2009,10,31,16,51,12.20
2009,10,31,16,52,12.20
2009,10,31,16,53,12.20
2009,10,31,16,54,12.20
2009,10,31,16,55,12.10
2009,10,31,16,56,12.10
2009,10,31,16,57,12.10
2009,10,31,16,58,12.10
2009,10,31,16,59,12.10
2009,10,31,17,00,12.00
2009,10,31,17,01,12.00
2009,10,31,17,02,11.90
2009,10,31,17,03,11.90
2009,10,31,17,04,11.80
2009,10,31,17,05,11.70
2009,10,31,17,06,11.60
2009,10,31,17,07,11.50
2009,10,31,17,08,11.40
2009,10,31,17,09,11.30
2009,10,31,17,10,11.30
2009,10,31,17,11,11.30
2009,10,31,17,12,11.30
2009,10,31,17,13,11.30
2009,10,31,17,14,11.20
2009,10,31,17,15,11.30
2009,10,31,17,16,11.30
2009,10,31,17,17,11.30
2009,10,31,17,18,11.30
2009,10,31,17,19,11.30
2009,10,31,17,20,11.30
2009,10,31,17,21,11.30
2009,10,31,17,22,11.30
2009,10,31,17,23,11.30
2009,10,31,17,24,11.30
2009,10,31,17,25,11.30
2009,10,31,17,26,11.20
2009,10,31,17,27,11.20
2009,10,31,17,28,11.20
2009,10,31,17,29,11.20
2009,10,31,17,30,11.20
2009,10,31,17,31,11.20
2009,10,31,17,32,11.20
2009,10,31,17,33,11.20
2009,10,31,17,34,11.20
2009,10,31,17,35,11.20
2009,10,31,17,36,11.20
